Year,Month,Day,Hour,Minute,Value (Times are PST for temperature in C)
2015,08,13,00,00,21.80
2015,08,13,00,01,21.70
2015,08,13,00,02,21.70
2015,08,13,00,03,21.60
2015,08,13,00,04,21.50
2015,08,13,00,05,21.50
2015,08,13,00,06,21.40
2015,08,13,00,07,21.30
2015,08,13,00,08,21.30
2015,08,13,00,09,21.20
2015,08,13,00,10,21.20
2015,08,13,00,11,21.10
2015,08,13,00,12,21.00
2015,08,13,00,13,21.00
2015,08,13,00,14,20.90
2015,08,13,00,15,20.80
2015,08,13,00,16,20.80
2015,08,13,00,17,20.70
2015,08,13,00,18,20.60
2015,08,13,00,19,20.60
2015,08,13,00,20,20.50
2015,08,13,00,21,20.50
2015,08,13,00,22,20.40
2015,08,13,00,23,20.40
2015,08,13,00,24,20.30
2015,08,13,00,25,20.30
2015,08,13,00,26,20.20
2015,08,13,00,27,20.20
2015,08,13,00,28,20.10
2015,08,13,00,29,20.10
2015,08,13,00,30,20.00
2015,08,13,00,31,20.00
2015,08,13,00,32,19.90
2015,08,13,00,33,19.90
2015,08,13,00,34,19.80
2015,08,13,00,35,19.80
2015,08,13,00,36,19.80
2015,08,13,00,37,19.70
2015,08,13,00,38,19.70
2015,08,13,00,39,19.60
2015,08,13,00,40,19.50
2015,08,13,00,41,19.50
2015,08,13,00,42,19.40
2015,08,13,00,43,19.40
2015,08,13,00,44,19.30
2015,08,13,00,45,19.30
2015,08,13,00,46,19.20
2015,08,13,00,47,19.20
2015,08,13,00,48,19.10
2015,08,13,00,49,19.10
2015,08,13,00,50,19.00
2015,08,13,00,51,18.90
2015,08,13,00,52,18.90
2015,08,13,00,53,18.90
2015,08,13,00,54,18.80
2015,08,13,00,55,18.80
2015,08,13,00,56,18.70
2015,08,13,00,57,18.70
2015,08,13,00,58,18.70
2015,08,13,00,59,18.60
2015,08,13,01,00,18.60
2015,08,13,01,01,18.60
2015,08,13,01,02,18.50
2015,08,13,01,03,18.40
2015,08,13,01,04,18.40
2015,08,13,01,05,18.40
2015,08,13,01,06,18.30
2015,08,13,01,07,18.30
2015,08,13,01,08,18.30
2015,08,13,01,09,18.20
2015,08,13,01,10,18.20
2015,08,13,01,11,18.10
2015,08,13,01,12,18.10
2015,08,13,01,13,18.10
2015,08,13,01,14,18.00
2015,08,13,01,15,18.00
2015,08,13,01,16,18.00
2015,08,13,01,17,17.90
2015,08,13,01,18,17.90
2015,08,13,01,19,17.90
2015,08,13,01,20,17.80
2015,08,13,01,21,17.80
2015,08,13,01,22,17.80
2015,08,13,01,23,17.80
2015,08,13,01,24,17.70
2015,08,13,01,25,17.70
2015,08,13,01,26,17.70
2015,08,13,01,27,17.70
2015,08,13,01,28,17.60
2015,08,13,01,29,17.60
2015,08,13,01,30,17.60
2015,08,13,01,31,17.50
2015,08,13,01,32,17.50
2015,08,13,01,33,17.50
2015,08,13,01,34,17.40
2015,08,13,01,35,17.40
2015,08,13,01,36,17.40
2015,08,13,01,37,17.30
2015,08,13,01,38,17.30
2015,08,13,01,39,17.30
2015,08,13,01,40,17.20
2015,08,13,01,41,17.20
2015,08,13,01,42,17.20
2015,08,13,01,43,17.20
2015,08,13,01,44,17.10
2015,08,13,01,45,17.10
2015,08,13,01,46,17.00
2015,08,13,01,47,17.00
2015,08,13,01,48,17.00
2015,08,13,01,49,16.90
2015,08,13,01,50,16.90
2015,08,13,01,51,16.80
2015,08,13,01,52,16.80
2015,08,13,01,53,16.80
2015,08,13,01,54,16.80
2015,08,13,01,55,16.70
2015,08,13,01,56,16.70
2015,08,13,01,57,16.70
2015,08,13,01,58,16.60
2015,08,13,01,59,16.60
2015,08,13,02,00,16.60
2015,08,13,02,01,16.50
2015,08,13,02,02,16.50
2015,08,13,02,03,16.40
2015,08,13,02,04,16.40
2015,08,13,02,05,16.40
2015,08,13,02,06,16.40
2015,08,13,02,07,16.30
2015,08,13,02,08,16.30
2015,08,13,02,09,16.30
2015,08,13,02,10,16.30
2015,08,13,02,11,16.20
2015,08,13,02,12,16.20
2015,08,13,02,13,16.20
2015,08,13,02,14,16.20
2015,08,13,02,15,16.20
2015,08,13,02,16,16.20
2015,08,13,02,17,16.20
2015,08,13,02,18,16.20
2015,08,13,02,19,16.20
2015,08,13,02,20,16.10
2015,08,13,02,21,16.10
2015,08,13,02,22,16.10
2015,08,13,02,23,16.10
2015,08,13,02,24,16.10
2015,08,13,02,25,16.10
2015,08,13,02,26,16.10
2015,08,13,02,27,16.10
2015,08,13,02,28,16.10
2015,08,13,02,29,16.10
2015,08,13,02,30,16.10
2015,08,13,02,31,16.10
2015,08,13,02,32,16.00
2015,08,13,02,33,16.00
2015,08,13,02,34,16.00
2015,08,13,02,35,16.00
2015,08,13,02,36,16.00
2015,08,13,02,37,16.00
2015,08,13,02,38,16.00
2015,08,13,02,39,15.90
2015,08,13,02,40,15.90
2015,08,13,02,41,15.90
2015,08,13,02,42,15.90
2015,08,13,02,43,15.90
2015,08,13,02,44,15.90
2015,08,13,02,45,15.90
2015,08,13,02,46,15.80
2015,08,13,02,47,15.80
2015,08,13,02,48,15.80
2015,08,13,02,49,15.80
2015,08,13,02,50,15.80
2015,08,13,02,51,15.70
2015,08,13,02,52,15.70
2015,08,13,02,53,15.70
2015,08,13,02,54,15.70
2015,08,13,02,55,15.70
2015,08,13,02,56,15.60
2015,08,13,02,57,15.60
2015,08,13,02,58,15.60
2015,08,13,02,59,15.50
2015,08,13,03,00,15.50
2015,08,13,03,01,15.50
2015,08,13,03,02,15.40
2015,08,13,03,06,15.30
2015,08,13,03,07,15.30
2015,08,13,03,08,15.30
2015,08,13,03,09,15.20
2015,08,13,03,10,15.20
2015,08,13,03,11,15.20
2015,08,13,03,12,15.20
2015,08,13,03,13,15.20
2015,08,13,03,14,15.10
2015,08,13,03,15,15.10
2015,08,13,03,16,15.10
2015,08,13,03,17,15.00
2015,08,13,03,18,15.00
2015,08,13,03,19,15.00
2015,08,13,03,20,15.00
2015,08,13,03,21,15.00
2015,08,13,03,22,15.00
2015,08,13,03,23,15.00
2015,08,13,03,24,15.00
2015,08,13,03,25,15.00
2015,08,13,03,26,15.00
2015,08,13,03,27,15.00
2015,08,13,03,28,15.00
2015,08,13,03,29,15.00
2015,08,13,03,30,15.00
2015,08,13,03,31,15.00
2015,08,13,03,32,14.90
2015,08,13,03,33,14.90
2015,08,13,03,34,14.90
2015,08,13,03,35,14.80
2015,08,13,03,36,14.80
2015,08,13,03,37,14.80
2015,08,13,03,38,14.80
2015,08,13,03,39,14.80
2015,08,13,03,40,14.70
2015,08,13,03,41,14.70
2015,08,13,03,42,14.70
2015,08,13,03,43,14.70
2015,08,13,03,44,14.70
2015,08,13,03,45,14.60
2015,08,13,03,46,14.60
2015,08,13,03,47,14.60
2015,08,13,03,48,14.60
2015,08,13,03,49,14.60
2015,08,13,03,50,14.50
2015,08,13,03,51,14.50
2015,08,13,03,52,14.50
2015,08,13,03,53,14.50
2015,08,13,03,54,14.40
2015,08,13,03,55,14.40
2015,08,13,03,56,14.40
2015,08,13,03,57,14.40
2015,08,13,03,58,14.40
2015,08,13,03,59,14.40
2015,08,13,04,00,14.40
2015,08,13,04,01,14.40
2015,08,13,04,02,14.40
2015,08,13,04,03,14.30
2015,08,13,04,04,14.30
2015,08,13,04,05,14.30
2015,08,13,04,06,14.30
2015,08,13,04,07,14.30
2015,08,13,04,08,14.30
2015,08,13,04,09,14.30
2015,08,13,04,10,14.20
2015,08,13,04,11,14.20
2015,08,13,04,12,14.20
2015,08,13,04,13,14.20
2015,08,13,04,14,14.20
2015,08,13,04,15,14.20
2015,08,13,04,16,14.20
2015,08,13,04,17,14.20
2015,08,13,04,18,14.20
2015,08,13,04,19,14.20
2015,08,13,04,20,14.20
2015,08,13,04,21,14.20
2015,08,13,04,22,14.20
2015,08,13,04,23,14.20
2015,08,13,04,24,14.20
2015,08,13,04,25,14.10
2015,08,13,04,26,14.10
2015,08,13,04,27,14.10
2015,08,13,04,28,14.10
2015,08,13,04,29,14.10
2015,08,13,04,30,14.10
2015,08,13,04,31,14.10
2015,08,13,04,32,14.20
2015,08,13,04,33,14.20
2015,08,13,04,34,14.20
2015,08,13,04,35,14.20
2015,08,13,04,36,14.20
2015,08,13,04,37,14.20
2015,08,13,04,38,14.20
2015,08,13,04,39,14.20
2015,08,13,04,40,14.20
2015,08,13,04,41,14.20
2015,08,13,04,42,14.20
2015,08,13,04,43,14.20
2015,08,13,04,44,14.10
2015,08,13,04,45,14.10
2015,08,13,04,46,14.10
2015,08,13,04,47,14.10
2015,08,13,04,48,14.00
2015,08,13,04,49,14.00
2015,08,13,04,50,13.90
2015,08,13,04,51,13.90
2015,08,13,04,52,13.90
2015,08,13,04,53,13.90
2015,08,13,04,54,13.90
2015,08,13,04,55,13.90
2015,08,13,04,56,13.80
2015,08,13,04,57,13.80
2015,08,13,04,58,13.80
2015,08,13,04,59,13.80
2015,08,13,05,00,13.80
2015,08,13,05,01,13.80
2015,08,13,05,02,13.70
2015,08,13,05,03,13.70
2015,08,13,05,04,13.70
2015,08,13,05,05,13.70
2015,08,13,05,06,13.70
2015,08,13,05,07,13.70
2015,08,13,05,08,13.60
2015,08,13,05,09,13.60
2015,08,13,05,10,13.60
2015,08,13,05,11,13.60
2015,08,13,05,12,13.50
2015,08,13,05,13,13.50
2015,08,13,05,14,13.50
2015,08,13,05,15,13.40
2015,08,13,05,16,13.40
2015,08,13,05,17,13.40
2015,08,13,05,18,13.40
2015,08,13,05,19,13.40
2015,08,13,05,20,13.40
2015,08,13,05,21,13.40
2015,08,13,05,22,13.40
2015,08,13,05,23,13.40
2015,08,13,05,24,13.40
2015,08,13,05,25,13.30
2015,08,13,05,26,13.30
2015,08,13,05,27,13.30
2015,08,13,05,28,13.30
2015,08,13,05,29,13.30
2015,08,13,05,30,13.30
2015,08,13,05,31,13.20
2015,08,13,05,32,13.20
2015,08,13,05,33,13.20
2015,08,13,05,34,13.20
2015,08,13,05,35,13.20
2015,08,13,05,36,13.20
2015,08,13,05,37,13.20
2015,08,13,05,38,13.20
2015,08,13,05,39,13.20
2015,08,13,05,40,13.20
2015,08,13,05,41,13.20
2015,08,13,05,42,13.20
2015,08,13,05,43,13.20
2015,08,13,05,44,13.20
2015,08,13,05,45,13.20
2015,08,13,05,46,13.20
2015,08,13,05,47,13.20
2015,08,13,05,48,13.20
2015,08,13,05,49,13.20
2015,08,13,05,50,13.20
2015,08,13,05,51,13.20
2015,08,13,05,52,13.20
2015,08,13,05,53,13.20
2015,08,13,05,54,13.20
2015,08,13,05,55,13.20
2015,08,13,05,56,13.20
2015,08,13,05,57,13.20
2015,08,13,05,58,13.10
2015,08,13,05,59,13.10
2015,08,13,06,00,13.10
2015,08,13,06,01,13.10
2015,08,13,06,02,13.10
2015,08,13,06,03,13.10
2015,08,13,06,04,13.10
2015,08,13,06,05,13.10
2015,08,13,06,06,13.10
2015,08,13,06,07,13.00
2015,08,13,06,08,13.00
2015,08,13,06,09,13.00
2015,08,13,06,10,13.00
2015,08,13,06,11,12.90
2015,08,13,06,12,12.90
2015,08,13,06,13,12.90
2015,08,13,06,14,12.90
2015,08,13,06,15,12.90
2015,08,13,06,16,12.90
2015,08,13,06,17,12.90
2015,08,13,06,18,12.90
2015,08,13,06,19,12.80
2015,08,13,06,20,12.80
2015,08,13,06,21,12.80
2015,08,13,06,22,12.80
2015,08,13,06,23,12.80
2015,08,13,06,24,12.80
2015,08,13,06,25,12.80
2015,08,13,06,26,12.80
2015,08,13,06,27,12.80
2015,08,13,06,28,12.80
2015,08,13,06,29,12.80
2015,08,13,06,30,12.80
2015,08,13,06,31,12.80
2015,08,13,06,32,12.80
2015,08,13,06,33,12.80
2015,08,13,06,34,12.80
2015,08,13,06,35,12.70
2015,08,13,06,36,12.70
2015,08,13,06,37,12.70
2015,08,13,06,38,12.70
2015,08,13,06,39,12.70
2015,08,13,06,40,12.70
2015,08,13,06,41,12.70
2015,08,13,06,42,12.70
2015,08,13,06,43,12.70
2015,08,13,06,44,12.70
2015,08,13,06,45,12.70
2015,08,13,06,46,12.70
2015,08,13,06,47,12.70
2015,08,13,06,48,12.70
2015,08,13,06,49,12.70
2015,08,13,06,50,12.70
2015,08,13,06,51,12.70
2015,08,13,06,52,12.70
2015,08,13,06,53,12.70
2015,08,13,06,54,12.70
2015,08,13,06,55,12.70
2015,08,13,06,56,12.70
2015,08,13,06,57,12.70
2015,08,13,06,58,12.70
2015,08,13,06,59,12.70
2015,08,13,07,00,12.70
2015,08,13,07,01,12.70
2015,08,13,07,02,12.80
2015,08,13,07,03,12.80
2015,08,13,07,04,12.80
2015,08,13,07,05,12.80
2015,08,13,07,06,12.80
2015,08,13,07,07,12.80
2015,08,13,07,08,12.80
2015,08,13,07,09,12.80
2015,08,13,07,10,12.80
2015,08,13,07,11,12.80
2015,08,13,07,12,12.90
2015,08,13,07,13,12.90
2015,08,13,07,14,12.90
2015,08,13,07,15,12.90
2015,08,13,07,16,13.00
2015,08,13,07,17,13.00
2015,08,13,07,18,13.00
2015,08,13,07,19,13.10
2015,08,13,07,20,13.10
2015,08,13,07,21,13.10
2015,08,13,07,22,13.20
2015,08,13,07,23,13.20
2015,08,13,07,24,13.20
2015,08,13,07,25,13.30
2015,08,13,07,26,13.30
2015,08,13,07,27,13.40
2015,08,13,07,28,13.40
2015,08,13,07,29,13.50
2015,08,13,07,30,13.50
2015,08,13,07,31,13.60
2015,08,13,07,32,13.60
2015,08,13,07,33,13.70
2015,08,13,07,34,13.80
2015,08,13,07,35,13.90
2015,08,13,07,36,14.00
2015,08,13,07,37,14.10
2015,08,13,07,38,14.20
2015,08,13,07,39,14.30
2015,08,13,07,40,14.30
2015,08,13,07,41,14.40
2015,08,13,07,42,14.40
2015,08,13,07,43,14.50
2015,08,13,07,44,14.60
2015,08,13,07,45,14.70
2015,08,13,07,46,14.90
2015,08,13,07,47,15.00
2015,08,13,07,48,15.00
2015,08,13,07,49,15.00
2015,08,13,07,50,15.10
2015,08,13,07,51,15.20
2015,08,13,07,52,15.30
2015,08,13,07,53,15.40
2015,08,13,07,54,15.50
2015,08,13,07,55,15.60
2015,08,13,07,56,15.70
2015,08,13,07,57,15.80
2015,08,13,07,58,15.90
2015,08,13,07,59,16.00
2015,08,13,08,00,16.10
2015,08,13,08,01,16.20
2015,08,13,08,02,16.30
2015,08,13,08,03,16.30
2015,08,13,08,04,16.40
2015,08,13,08,05,16.50
2015,08,13,08,06,16.60
2015,08,13,08,07,16.70
2015,08,13,08,08,16.80
2015,08,13,08,09,16.90
2015,08,13,08,10,17.00
2015,08,13,08,11,17.10
2015,08,13,08,12,17.20
2015,08,13,08,13,17.20
2015,08,13,08,14,17.30
2015,08,13,08,15,17.40
2015,08,13,08,16,17.50
2015,08,13,08,17,17.60
2015,08,13,08,18,17.70
2015,08,13,08,19,17.80
2015,08,13,08,20,17.90
2015,08,13,08,21,18.00
2015,08,13,08,22,18.10
2015,08,13,08,23,18.20
2015,08,13,08,24,18.30
2015,08,13,08,25,18.40
2015,08,13,08,26,18.50
2015,08,13,08,27,18.60
2015,08,13,08,28,18.70
2015,08,13,08,29,18.90
2015,08,13,08,30,19.00
2015,08,13,08,31,19.20
2015,08,13,08,32,19.30
2015,08,13,08,33,19.40
2015,08,13,08,34,19.50
2015,08,13,08,35,19.60
2015,08,13,08,36,19.70
2015,08,13,08,37,19.80
2015,08,13,08,38,19.80
2015,08,13,08,39,19.80
2015,08,13,08,40,19.80
2015,08,13,08,41,19.90
2015,08,13,08,42,19.90
2015,08,13,08,43,19.90
2015,08,13,08,44,20.00
2015,08,13,08,45,20.10
2015,08,13,08,46,20.20
2015,08,13,08,47,20.30
2015,08,13,08,48,20.40
2015,08,13,08,49,20.50
2015,08,13,08,50,20.60
2015,08,13,08,51,20.70
2015,08,13,08,52,20.80
2015,08,13,08,53,20.90
2015,08,13,08,54,21.10
2015,08,13,08,55,21.20
2015,08,13,08,56,21.30
2015,08,13,08,57,21.30
2015,08,13,08,58,21.40
2015,08,13,08,59,21.40
2015,08,13,09,00,21.40
2015,08,13,09,01,21.40
2015,08,13,09,02,21.50
2015,08,13,09,03,21.50
2015,08,13,09,04,21.60
2015,08,13,09,05,21.70
2015,08,13,09,06,21.70
2015,08,13,09,07,21.80
2015,08,13,09,08,21.80
2015,08,13,09,09,21.90
2015,08,13,09,10,22.00
2015,08,13,09,11,22.00
2015,08,13,09,12,22.00
2015,08,13,09,13,22.10
2015,08,13,09,14,22.20
2015,08,13,09,15,22.20
2015,08,13,09,16,22.20
2015,08,13,09,17,22.30
2015,08,13,09,18,22.20
2015,08,13,09,19,22.20
2015,08,13,09,20,22.20
2015,08,13,09,21,22.30
2015,08,13,09,22,22.30
2015,08,13,09,23,22.30
2015,08,13,09,24,22.30
2015,08,13,09,25,22.40
2015,08,13,09,26,22.50
2015,08,13,09,27,22.60
2015,08,13,09,28,22.80
2015,08,13,09,29,22.80
2015,08,13,09,30,22.90
2015,08,13,09,31,23.00
2015,08,13,09,32,23.10
2015,08,13,09,33,23.20
2015,08,13,09,34,23.30
2015,08,13,09,35,23.40
2015,08,13,09,36,23.40
2015,08,13,09,37,23.40
2015,08,13,09,38,23.30
2015,08,13,09,39,23.40
2015,08,13,09,40,23.40
2015,08,13,09,41,23.50
2015,08,13,09,42,23.50
2015,08,13,09,43,23.50
2015,08,13,09,44,23.50
2015,08,13,09,45,23.50
2015,08,13,09,46,23.50
2015,08,13,09,47,23.60
2015,08,13,09,48,23.60
2015,08,13,09,49,23.60
2015,08,13,09,50,23.50
2015,08,13,09,51,23.40
2015,08,13,09,52,23.30
2015,08,13,09,53,23.30
2015,08,13,09,54,23.30
2015,08,13,09,55,23.30
2015,08,13,09,56,23.40
2015,08,13,09,57,23.40
2015,08,13,09,58,23.40
2015,08,13,09,59,23.50
2015,08,13,10,00,23.50
2015,08,13,10,01,23.50
2015,08,13,10,02,23.60
2015,08,13,10,03,23.70
2015,08,13,10,04,23.80
2015,08,13,10,05,23.80
2015,08,13,10,06,23.90
2015,08,13,10,07,23.80
2015,08,13,10,08,23.50
2015,08,13,10,09,23.30
2015,08,13,10,10,23.20
2015,08,13,10,11,23.00
2015,08,13,10,12,22.80
2015,08,13,10,13,22.70
2015,08,13,10,14,22.60
2015,08,13,10,15,22.50
2015,08,13,10,16,22.50
2015,08,13,10,17,22.50
2015,08,13,10,18,22.60
2015,08,13,10,19,22.60
2015,08,13,10,20,22.60
2015,08,13,10,21,22.60
2015,08,13,10,22,22.70
2015,08,13,10,23,22.70
2015,08,13,10,24,22.80
2015,08,13,10,25,22.80
2015,08,13,10,26,22.80
2015,08,13,10,27,22.80
2015,08,13,10,28,22.70
2015,08,13,10,29,22.70
2015,08,13,10,30,22.60
2015,08,13,10,31,22.60
2015,08,13,10,32,22.60
2015,08,13,10,33,22.70
2015,08,13,10,34,22.80
2015,08,13,10,35,22.90
2015,08,13,10,36,23.00
2015,08,13,10,37,23.10
2015,08,13,10,38,23.20
2015,08,13,10,39,23.40
2015,08,13,10,40,23.50
2015,08,13,10,41,23.60
2015,08,13,10,42,23.70
2015,08,13,10,43,23.70
2015,08,13,10,44,23.60
2015,08,13,10,45,23.40
2015,08,13,10,46,23.40
2015,08,13,10,47,23.40
2015,08,13,10,48,23.30
2015,08,13,10,49,23.30
2015,08,13,10,50,23.40
2015,08,13,10,51,23.60
2015,08,13,10,52,23.70
2015,08,13,10,53,23.80
2015,08,13,10,54,23.90
2015,08,13,10,55,24.00
2015,08,13,10,56,24.10
2015,08,13,10,57,24.20
2015,08,13,10,58,24.10
2015,08,13,10,59,24.10
2015,08,13,11,00,24.10
2015,08,13,11,01,24.10
2015,08,13,11,02,24.10
2015,08,13,11,03,24.00
2015,08,13,11,04,23.90
2015,08,13,11,05,23.80
2015,08,13,11,06,23.70
2015,08,13,11,07,23.60
2015,08,13,11,08,23.60
2015,08,13,11,09,23.60
2015,08,13,11,10,23.60
2015,08,13,11,11,23.70
2015,08,13,11,12,23.80
2015,08,13,11,13,23.80
2015,08,13,11,14,24.00
2015,08,13,11,15,24.10
2015,08,13,11,16,24.00
2015,08,13,11,17,24.00
2015,08,13,11,18,23.90
2015,08,13,11,19,23.90
2015,08,13,11,20,23.80
2015,08,13,11,21,23.70
2015,08,13,11,22,23.80
2015,08,13,11,23,23.80
2015,08,13,11,24,24.00
2015,08,13,11,25,24.00
2015,08,13,11,26,23.90
2015,08,13,11,27,23.60
2015,08,13,11,28,23.40
2015,08,13,11,29,23.20
2015,08,13,11,30,23.10
2015,08,13,11,31,23.10
2015,08,13,11,32,23.10
2015,08,13,11,33,23.20
2015,08,13,11,34,23.30
2015,08,13,11,35,23.30
2015,08,13,11,36,23.20
2015,08,13,11,37,23.10
2015,08,13,11,38,23.10
2015,08,13,11,39,23.10
2015,08,13,11,40,23.10
2015,08,13,11,41,23.20
2015,08,13,11,42,23.20
2015,08,13,11,43,23.30
2015,08,13,11,44,23.40
2015,08,13,11,45,23.50
2015,08,13,11,46,23.50
2015,08,13,11,47,23.50
2015,08,13,11,48,23.50
2015,08,13,11,49,23.60
2015,08,13,11,50,23.70
2015,08,13,11,51,23.90
2015,08,13,11,52,24.00
2015,08,13,11,53,24.20
2015,08,13,11,54,24.20
2015,08,13,11,55,24.20
2015,08,13,11,56,24.10
2015,08,13,11,57,24.10
2015,08,13,11,58,24.20
2015,08,13,11,59,24.20
2015,08,13,12,00,24.10
2015,08,13,12,01,24.00
2015,08,13,12,02,24.00
2015,08,13,12,03,23.90
2015,08,13,12,04,23.80
2015,08,13,12,05,23.50
2015,08,13,12,06,23.30
2015,08,13,12,07,23.30
2015,08,13,12,08,23.20
2015,08,13,12,09,23.10
2015,08,13,12,10,23.10
2015,08,13,12,11,23.10
2015,08,13,12,12,23.20
2015,08,13,12,13,23.30
2015,08,13,12,14,23.40
2015,08,13,12,15,23.50
2015,08,13,12,16,23.60
2015,08,13,12,17,23.70
2015,08,13,12,18,23.70
2015,08,13,12,19,23.70
2015,08,13,12,20,23.80
2015,08,13,12,21,23.90
2015,08,13,12,22,24.00
2015,08,13,12,23,24.10
2015,08,13,12,24,24.20
2015,08,13,12,25,24.10
2015,08,13,12,26,24.10
2015,08,13,12,27,24.10
2015,08,13,12,28,24.10
2015,08,13,12,29,24.20
2015,08,13,12,30,24.30
2015,08,13,12,31,24.40
2015,08,13,12,32,24.60
2015,08,13,12,33,24.60
2015,08,13,12,34,24.60
2015,08,13,12,35,24.50
2015,08,13,12,36,24.50
2015,08,13,12,37,24.50
2015,08,13,12,38,24.60
2015,08,13,12,39,24.70
2015,08,13,12,40,24.60
2015,08,13,12,41,24.60
2015,08,13,12,42,24.60
2015,08,13,12,43,24.70
2015,08,13,12,44,24.80
2015,08,13,12,45,24.80
2015,08,13,12,46,24.80
2015,08,13,12,47,24.90
2015,08,13,12,48,24.90
2015,08,13,12,49,24.90
2015,08,13,12,50,25.00
2015,08,13,12,51,24.90
2015,08,13,12,52,24.90
2015,08,13,12,53,25.00
2015,08,13,12,54,25.10
2015,08,13,12,55,25.10
2015,08,13,12,56,25.10
2015,08,13,12,57,25.10
2015,08,13,12,58,25.10
2015,08,13,12,59,25.20
2015,08,13,13,00,25.20
2015,08,13,13,01,25.20
2015,08,13,13,02,25.30
2015,08,13,13,03,25.10
2015,08,13,13,04,25.00
2015,08,13,13,05,24.90
2015,08,13,13,06,24.80
2015,08,13,13,07,24.80
2015,08,13,13,08,24.80
2015,08,13,13,09,24.70
2015,08,13,13,10,24.60
2015,08,13,13,11,24.60
2015,08,13,13,12,24.60
2015,08,13,13,13,24.60
2015,08,13,13,14,24.60
2015,08,13,13,15,24.50
2015,08,13,13,16,24.50
2015,08,13,13,17,24.50
2015,08,13,13,18,24.50
2015,08,13,13,19,24.60
2015,08,13,13,20,24.70
2015,08,13,13,21,24.80
2015,08,13,13,22,24.80
2015,08,13,13,23,24.60
2015,08,13,13,24,24.40
2015,08,13,13,25,24.40
2015,08,13,13,26,24.40
2015,08,13,13,27,24.40
2015,08,13,13,28,24.40
2015,08,13,13,29,24.40
2015,08,13,13,30,24.40
2015,08,13,13,31,24.40
2015,08,13,13,32,24.30
2015,08,13,13,33,24.30
2015,08,13,13,34,24.30
2015,08,13,13,35,24.30
2015,08,13,13,36,24.30
2015,08,13,13,37,24.40
2015,08,13,13,38,24.50
2015,08,13,13,39,24.60
2015,08,13,13,40,24.70
2015,08,13,13,41,24.80
2015,08,13,13,42,24.80
2015,08,13,13,43,24.80
2015,08,13,13,44,24.80
2015,08,13,13,45,24.80
2015,08,13,13,46,24.80
2015,08,13,13,47,24.90
2015,08,13,13,48,25.00
2015,08,13,13,49,25.10
2015,08,13,13,50,25.30
2015,08,13,13,51,25.40
2015,08,13,13,52,25.40
2015,08,13,13,53,25.40
2015,08,13,13,54,25.40
2015,08,13,13,55,25.30
2015,08,13,13,56,25.30
2015,08,13,13,57,25.40
2015,08,13,13,58,25.60
2015,08,13,13,59,25.70
2015,08,13,14,00,25.70
2015,08,13,14,01,25.80
2015,08,13,14,02,25.90
2015,08,13,14,03,25.90
2015,08,13,14,04,25.90
2015,08,13,14,05,25.90
2015,08,13,14,06,25.90
2015,08,13,14,07,25.90
2015,08,13,14,08,26.10
2015,08,13,14,09,26.20
2015,08,13,14,10,26.30
2015,08,13,14,11,26.30
2015,08,13,14,12,26.20
2015,08,13,14,13,26.20
2015,08,13,14,14,26.20
2015,08,13,14,15,26.30
2015,08,13,14,16,26.40
2015,08,13,14,17,26.50
2015,08,13,14,18,26.50
2015,08,13,14,19,26.60
2015,08,13,14,20,26.70
2015,08,13,14,21,26.70
2015,08,13,14,22,26.90
2015,08,13,14,23,26.90
2015,08,13,14,24,26.90
2015,08,13,14,25,26.80
2015,08,13,14,26,26.80
2015,08,13,14,27,26.80
2015,08,13,14,28,26.90
2015,08,13,14,29,26.90
2015,08,13,14,30,27.00
2015,08,13,14,31,27.00
2015,08,13,14,32,27.10
2015,08,13,14,33,27.10
2015,08,13,14,34,26.90
2015,08,13,14,35,26.90
2015,08,13,14,36,26.90
2015,08,13,14,37,26.90
2015,08,13,14,38,27.00
2015,08,13,14,39,27.00
2015,08,13,14,40,27.10
2015,08,13,14,41,27.10
2015,08,13,14,42,27.30
2015,08,13,14,43,27.30
2015,08,13,14,44,27.20
2015,08,13,14,45,27.10
2015,08,13,14,46,26.80
2015,08,13,14,47,26.60
2015,08,13,14,48,26.40
2015,08,13,14,49,26.20
2015,08,13,14,50,26.10
2015,08,13,14,51,25.90
2015,08,13,14,52,25.80
2015,08,13,14,53,25.70
2015,08,13,14,54,25.70
2015,08,13,14,55,25.80
2015,08,13,14,56,25.90
2015,08,13,14,57,25.90
2015,08,13,14,58,25.90
2015,08,13,14,59,26.00
2015,08,13,15,00,26.00
2015,08,13,15,01,26.10
2015,08,13,15,02,26.20
2015,08,13,15,03,26.30
2015,08,13,15,04,26.30
2015,08,13,15,05,26.30
2015,08,13,15,06,26.20
2015,08,13,15,07,26.20
2015,08,13,15,08,26.30
2015,08,13,15,09,26.30
2015,08,13,15,10,26.40
2015,08,13,15,11,26.50
2015,08,13,15,12,26.60
2015,08,13,15,13,26.60
2015,08,13,15,14,26.70
2015,08,13,15,15,26.80
2015,08,13,15,16,26.80
2015,08,13,15,17,26.80
2015,08,13,15,18,26.70
2015,08,13,15,19,26.70
2015,08,13,15,20,26.60
2015,08,13,15,21,26.40
2015,08,13,15,22,26.40
2015,08,13,15,23,26.50
2015,08,13,15,24,26.60
2015,08,13,15,25,26.60
2015,08,13,15,26,26.50
2015,08,13,15,27,26.50
2015,08,13,15,28,26.50
2015,08,13,15,29,26.40
2015,08,13,15,30,26.40
2015,08,13,15,31,26.40
2015,08,13,15,32,26.30
2015,08,13,15,33,26.20
2015,08,13,15,34,26.20
2015,08,13,15,35,26.20
2015,08,13,15,36,26.10
2015,08,13,15,37,26.10
2015,08,13,15,38,26.00
2015,08,13,15,39,25.90
2015,08,13,15,40,25.90
2015,08,13,15,41,26.00
2015,08,13,15,42,26.10
2015,08,13,15,43,26.20
2015,08,13,15,44,26.30
2015,08,13,15,45,26.40
2015,08,13,15,46,26.40
2015,08,13,15,47,26.40
2015,08,13,15,48,26.50
2015,08,13,15,49,26.60
2015,08,13,15,50,26.60
2015,08,13,15,51,26.70
2015,08,13,15,52,26.70
2015,08,13,15,53,26.80
2015,08,13,15,54,26.80
2015,08,13,15,55,26.90
2015,08,13,15,56,27.00
2015,08,13,15,57,27.10
2015,08,13,15,58,27.20
2015,08,13,15,59,27.40
2015,08,13,16,00,27.50
2015,08,13,16,01,27.60
2015,08,13,16,02,27.70
2015,08,13,16,03,27.90
2015,08,13,16,04,28.00
2015,08,13,16,05,28.10
2015,08,13,16,06,28.10
2015,08,13,16,07,28.10
2015,08,13,16,08,28.00
2015,08,13,16,09,27.90
2015,08,13,16,10,27.90
2015,08,13,16,11,27.80
2015,08,13,16,12,27.70
2015,08,13,16,13,27.70
2015,08,13,16,14,27.70
2015,08,13,16,15,27.70
2015,08,13,16,16,27.70
2015,08,13,16,17,27.70
2015,08,13,16,18,27.70
2015,08,13,16,19,27.80
2015,08,13,16,20,27.90
2015,08,13,16,21,28.00
2015,08,13,16,22,27.90
2015,08,13,16,23,27.90
2015,08,13,16,24,27.80
2015,08,13,16,25,27.80
2015,08,13,16,26,27.90
2015,08,13,16,27,28.00
2015,08,13,16,28,28.10
2015,08,13,16,29,28.20
2015,08,13,16,30,28.30
2015,08,13,16,31,28.30
2015,08,13,16,32,28.40
2015,08,13,16,33,28.50
2015,08,13,16,34,28.40
2015,08,13,16,35,28.30
2015,08,13,16,36,28.30
2015,08,13,16,37,28.30
2015,08,13,16,38,28.30
2015,08,13,16,39,28.30
2015,08,13,16,40,28.30
2015,08,13,16,41,28.30
2015,08,13,16,42,28.30
2015,08,13,16,43,28.30
2015,08,13,16,44,28.30
2015,08,13,16,45,28.40
2015,08,13,16,46,28.40
2015,08,13,16,47,28.50
2015,08,13,16,48,28.60
2015,08,13,16,49,28.70
2015,08,13,16,50,28.70
2015,08,13,16,51,28.70
2015,08,13,16,52,28.70
2015,08,13,16,53,28.70
2015,08,13,16,54,28.70
2015,08,13,16,55,28.60
2015,08,13,16,56,28.50
2015,08,13,16,57,28.50
2015,08,13,16,58,28.40
2015,08,13,16,59,28.30
2015,08,13,17,00,28.30
2015,08,13,17,01,28.30
2015,08,13,17,02,28.20
2015,08,13,17,03,28.20
2015,08,13,17,04,28.20
2015,08,13,17,05,28.20
2015,08,13,17,06,28.20
2015,08,13,17,07,28.20
2015,08,13,17,08,28.20
2015,08,13,17,09,28.30
2015,08,13,17,10,28.40
2015,08,13,17,11,28.40
2015,08,13,17,12,28.50
2015,08,13,17,13,28.40
2015,08,13,17,14,28.40
2015,08,13,17,15,28.30
2015,08,13,17,16,28.30
2015,08,13,17,17,28.30
2015,08,13,17,18,28.40
2015,08,13,17,19,28.40
2015,08,13,17,20,28.30
2015,08,13,17,21,28.30
2015,08,13,17,22,28.30